When you browse on this site, cookies collect data to enhance your experience and personalize the content and advertising you see.
Visit our Privacy Policy to learn more. By continuing to use the site, you agree to this use of cookies and data.
  • In Romania
  • List of Countries
  • For 7 days
  • Water Temperature
  • Satellite Maps
  • Weather Map
  • Weather Widgets
  • user-avatar
    Login

    Hourly Weather Lelowice

    Today, 17 June, Monday

    Time Temperature Precipitation Wind Pressure Humidity
    00:00 +18°C° 0 mm 3 mps 743 mmHg 91%
    01:00 +18°C° 0 mm 4 mps 743 mmHg 90%
    02:00 +17°C° 0 mm 3 mps 743 mmHg 89%
    03:00 +17°C° 0 mm 3 mps 743 mmHg 89%
    04:00 +17°C° 0 mm 2 mps 743 mmHg 89%
    05:00 +17°C° 0 mm 2 mps 743 mmHg 84%
    06:00 +17°C° 0 mm 2 mps 744 mmHg 79%
    07:00 +18°C° 0 mm 3 mps 744 mmHg 75%
    08:00 +19°C° 0 mm 3 mps 744 mmHg 69%
    09:00 +20°C° 0 mm 3 mps 744 mmHg 64%
    10:00 +21°C° 0 mm 3 mps 744 mmHg 58%
    11:00 +22°C° 0 mm 3 mps 744 mmHg 56%
    12:00 +24°C° 0 mm 3 mps 744 mmHg 55%
    13:00 +25°C° 0 mm 2 mps 744 mmHg 53%
    14:00 +25°C° 0 mm 3 mps 744 mmHg 55%
    15:00 +25°C° 0 mm 3 mps 743 mmHg 56%
    16:00 +25°C° 0 mm 3 mps 743 mmHg 58%
    17:00 +24°C° 0 mm 2 mps 743 mmHg 64%
    18:00 +23°C° 0 mm 2 mps 743 mmHg 69%
    19:00 +20°C° 0 mm 2 mps 743 mmHg 75%
    20:00 +20°C° 0 mm 2 mps 743 mmHg 78%
    21:00 +19°C° 0 mm 2 mps 743 mmHg 81%
    22:00 +18°C° 0 mm 2 mps 743 mmHg 84%
    23:00 +17°C° 0 mm 2 mps 743 mmHg 87%

    Tomorrow, 18 June, Tuesday

    Time Temperature Precipitation Wind Pressure Humidity
    00:00 +17°C° 0 mm 2 mps 743 mmHg 89%
    01:00 +17°C° 0 mm 2 mps 743 mmHg 91%
    02:00 +17°C° 0 mm 2 mps 743 mmHg 92%
    03:00 +16°C° 0 mm 2 mps 743 mmHg 93%
    04:00 +16°C° 0 mm 2 mps 743 mmHg 94%
    05:00 +17°C° 0 mm 2 mps 743 mmHg 91%
    06:00 +18°C° 0 mm 3 mps 743 mmHg 88%
    07:00 +19°C° 0 mm 3 mps 743 mmHg 84%
    08:00 +20°C° 0 mm 3 mps 743 mmHg 82%
    09:00 +21°C° 0 mm 4 mps 743 mmHg 80%
    10:00 +21°C° 0 mm 4 mps 743 mmHg 77%
    11:00 +22°C° 0 mm 4 mps 742 mmHg 75%
    12:00 +22°C° 0 mm 4 mps 742 mmHg 74%
    13:00 +23°C° 0 mm 4 mps 742 mmHg 72%
    14:00 +23°C° 0 mm 4 mps 741 mmHg 73%
    15:00 +23°C° 0 mm 4 mps 741 mmHg 75%
    16:00 +22°C° 0 mm 4 mps 741 mmHg 77%
    17:00 +22°C° 0 mm 4 mps 741 mmHg 80%
    18:00 +22°C° 0 mm 4 mps 740 mmHg 82%
    19:00 +21°C° 0 mm 4 mps 740 mmHg 85%
    20:00 +21°C° 0.3 mm 4 mps 740 mmHg 88%
    21:00 +20°C° 0.3 mm 4 mps 740 mmHg 90%
    22:00 +20°C° 0.3 mm 4 mps 740 mmHg 93%
    23:00 +19°C° 0.6 mm 4 mps 740 mmHg 94%

    Day after tomorrow, 19 June, Wednesday

    Time Temperature Precipitation Wind Pressure Humidity
    00:00 +19°C° 0.6 mm 3 mps 740 mmHg 95%
    01:00 +19°C° 0.6 mm 3 mps 739 mmHg 96%
    02:00 +18°C° 0.1 mm 2 mps 739 mmHg 96%
    03:00 +18°C° 0.1 mm 2 mps 739 mmHg 97%
    04:00 +19°C° 0.1 mm 1 mps 739 mmHg 98%
    05:00 +20°C° 0 mm 1 mps 739 mmHg 94%
    06:00 +21°C° 0 mm 1 mps 739 mmHg 91%
    07:00 +22°C° 0 mm 1 mps 739 mmHg 87%
    08:00 +24°C° 0.1 mm 1 mps 739 mmHg 81%
    09:00 +24°C° 0.1 mm 0 mps 739 mmHg 75%
    10:00 +25°C° 0.1 mm 0 mps 739 mmHg 69%
    11:00 +28°C° 0.1 mm 1 mps 738 mmHg 64%
    12:00 +29°C° 0.1 mm 1 mps 738 mmHg 60%
    13:00 +29°C° 0.1 mm 1 mps 738 mmHg 56%
    14:00 +28°C° 1 mm 2 mps 738 mmHg 64%
    15:00 +26°C° 1 mm 3 mps 737 mmHg 73%
    16:00 +23°C° 1 mm 4 mps 737 mmHg 82%
    17:00 +24°C° 0.2 mm 3 mps 737 mmHg 82%
    18:00 +24°C° 0.2 mm 2 mps 737 mmHg 82%
    19:00 +23°C° 0.2 mm 1 mps 737 mmHg 82%
    20:00 +21°C° 0 mm 2 mps 737 mmHg 83%
    21:00 +21°C° 0 mm 2 mps 737 mmHg 84%
    22:00 +20°C° 0 mm 2 mps 738 mmHg 86%
    23:00 +20°C° 0 mm 1 mps 737 mmHg 86%

    20 June, Thursday

    Time Temperature Precipitation Wind Pressure Humidity
    00:00 +20°C° 0 mm 1 mps 737 mmHg 87%
    01:00 +20°C° 0 mm 1 mps 737 mmHg 88%
    02:00 +20°C° 0 mm 1 mps 737 mmHg 87%
    03:00 +18°C° 0 mm 0 mps 737 mmHg 87%
    04:00 +18°C° 0 mm 0 mps 737 mmHg 86%
    05:00 +19°C° 0.1 mm 0 mps 737 mmHg 84%
    06:00 +22°C° 0.1 mm 1 mps 738 mmHg 82%
    07:00 +23°C° 0.1 mm 1 mps 738 mmHg 80%
    08:00 +25°C° 0.3 mm 1 mps 738 mmHg 76%
    09:00 +26°C° 0.3 mm 1 mps 738 mmHg 72%
    10:00 +27°C° 0.3 mm 1 mps 738 mmHg 68%
    11:00 +28°C° 0.3 mm 1 mps 738 mmHg 64%
    12:00 +29°C° 0.3 mm 1 mps 738 mmHg 60%
    13:00 +29°C° 0.3 mm 1 mps 738 mmHg 57%
    14:00 +29°C° 0.8 mm 1 mps 738 mmHg 59%
    15:00 +29°C° 0.8 mm 1 mps 738 mmHg 62%
    16:00 +29°C° 0.8 mm 1 mps 738 mmHg 65%
    17:00 +27°C° 0.4 mm 1 mps 738 mmHg 69%
    18:00 +26°C° 0.4 mm 1 mps 738 mmHg 74%
    19:00 +25°C° 0.4 mm 1 mps 738 mmHg 79%
    20:00 +24°C° 0.8 mm 1 mps 738 mmHg 82%
    21:00 +23°C° 0.8 mm 1 mps 738 mmHg 86%
    22:00 +22°C° 0.8 mm 1 mps 738 mmHg 89%
    23:00 +21°C° 0.2 mm 1 mps 738 mmHg 89%

    21 June, Friday

    Time Temperature Precipitation Wind Pressure Humidity
    00:00 +21°C° 0.2 mm 1 mps 738 mmHg 90%
    01:00 +18°C° 0.2 mm 0 mps 738 mmHg 90%
    02:00 +18°C° 0 mm 0 mps 738 mmHg 91%
    03:00 +20°C° 0 mm 1 mps 737 mmHg 92%
    04:00 +20°C° 0 mm 1 mps 737 mmHg 92%
    05:00 +21°C° 0 mm 1 mps 738 mmHg 89%
    06:00 +23°C° 0 mm 1 mps 738 mmHg 85%
    07:00 +24°C° 0 mm 1 mps 738 mmHg 81%
    08:00 +25°C° 0.1 mm 1 mps 738 mmHg 75%
    09:00 +27°C° 0.1 mm 2 mps 738 mmHg 70%
    10:00 +28°C° 0.1 mm 2 mps 738 mmHg 64%
    11:00 +29°C° 0 mm 2 mps 738 mmHg 61%
    12:00 +30°C° 0 mm 2 mps 738 mmHg 57%
    13:00 +30°C° 0 mm 2 mps 738 mmHg 54%
    14:00 +30°C° 0.3 mm 2 mps 737 mmHg 58%
    15:00 +29°C° 0.3 mm 3 mps 737 mmHg 61%
    16:00 +29°C° 0.3 mm 3 mps 737 mmHg 64%
    17:00 +26°C° 1.1 mm 3 mps 737 mmHg 71%
    18:00 +24°C° 1.1 mm 3 mps 737 mmHg 78%
    19:00 +20°C° 1.1 mm 4 mps 737 mmHg 85%
    20:00 +20°C° 0.6 mm 3 mps 737 mmHg 86%
    21:00 +20°C° 0.6 mm 2 mps 737 mmHg 87%
    22:00 +21°C° 0.6 mm 1 mps 738 mmHg 88%
    23:00 +21°C° 0 mm 1 mps 738 mmHg 88%

    22 June, Saturday

    Time Temperature Precipitation Wind Pressure Humidity
    00:00 +20°C° 0 mm 1 mps 737 mmHg 88%
    01:00 +18°C° 0 mm 0 mps 737 mmHg 88%
    02:00 +18°C° 0 mm 0 mps 737 mmHg 89%
    03:00 +18°C° 0 mm 0 mps 737 mmHg 89%
    04:00 +18°C° 0 mm 0 mps 737 mmHg 89%
    05:00 +19°C° 0 mm 0 mps 737 mmHg 86%
    06:00 +20°C° 0 mm 0 mps 738 mmHg 83%
    07:00 +23°C° 0 mm 1 mps 738 mmHg 80%
    08:00 +25°C° 0.2 mm 1 mps 738 mmHg 75%
    09:00 +26°C° 0.2 mm 1 mps 737 mmHg 70%
    10:00 +28°C° 0.2 mm 1 mps 737 mmHg 66%
    11:00 +28°C° 0.4 mm 1 mps 737 mmHg 62%
    12:00 +29°C° 0.4 mm 1 mps 737 mmHg 59%
    13:00 +29°C° 0.4 mm 1 mps 737 mmHg 55%
    14:00 +30°C° 0 mm 1 mps 737 mmHg 55%
    15:00 +30°C° 0 mm 1 mps 737 mmHg 55%
    16:00 +30°C° 0 mm 1 mps 736 mmHg 54%
    17:00 +28°C° 0.4 mm 1 mps 736 mmHg 61%
    18:00 +27°C° 0.4 mm 1 mps 737 mmHg 68%
    19:00 +26°C° 0.4 mm 1 mps 737 mmHg 75%
    20:00 +24°C° 1.2 mm 1 mps 737 mmHg 79%
    21:00 +23°C° 1.2 mm 1 mps 737 mmHg 82%
    22:00 +22°C° 1.2 mm 1 mps 737 mmHg 85%
    23:00 +22°C° 0.1 mm 1 mps 737 mmHg 86%
    Show more